When you browse on this site, cookies collect data to enhance your experience and personalize the content and advertising you see.
Visit our Privacy Policy to learn more. By continuing to use the site, you agree to this use of cookies and data.
  • In Lithuania
  • List of Countries
  • For 7 days
  • Water Temperature
  • Weather Map
  • Weather Widgets
  • user-avatar
    Login

    Hourly Weather Wien

    Today, 20 October, Sunday

    Time Temperature Precipitation Wind Pressure Humidity
    00:00 +12°C° 0 mm 1 mps 741 mmHg 93%
    01:00 +12°C° 0 mm 1 mps 741 mmHg 93%
    02:00 +12°C° 0 mm 1 mps 741 mmHg 93%
    03:00 +12°C° 0 mm 1 mps 741 mmHg 93%
    04:00 +12°C° 0 mm 1 mps 741 mmHg 94%
    05:00 +11°C° 0 mm 0 mps 741 mmHg 93%
    06:00 +11°C° 0 mm 0 mps 741 mmHg 93%
    07:00 +11°C° 0 mm 0 mps 741 mmHg 92%
    08:00 +13°C° 0 mm 1 mps 741 mmHg 88%
    09:00 +14°C° 0 mm 1 mps 741 mmHg 84%
    10:00 +15°C° 0 mm 1 mps 742 mmHg 79%
    11:00 +18°C° 0 mm 1 mps 741 mmHg 74%
    12:00 +19°C° 0 mm 1 mps 741 mmHg 69%
    13:00 +20°C° 0 mm 1 mps 741 mmHg 64%
    14:00 +20°C° 0 mm 1 mps 741 mmHg 65%
    15:00 +20°C° 0 mm 1 mps 741 mmHg 66%
    16:00 +20°C° 0 mm 1 mps 741 mmHg 67%
    17:00 +19°C° 0 mm 1 mps 741 mmHg 72%
    18:00 +16°C° 0 mm 1 mps 741 mmHg 77%
    19:00 +15°C° 0 mm 1 mps 741 mmHg 82%
    20:00 +15°C° 0 mm 1 mps 741 mmHg 83%
    21:00 +14°C° 0 mm 1 mps 741 mmHg 84%
    22:00 +14°C° 0 mm 1 mps 741 mmHg 85%
    23:00 +14°C° 0 mm 1 mps 741 mmHg 86%

    Tomorrow, 21 October, Monday

    Time Temperature Precipitation Wind Pressure Humidity
    00:00 +14°C° 0 mm 1 mps 741 mmHg 87%
    01:00 +13°C° 0 mm 1 mps 742 mmHg 87%
    02:00 +12°C° 0 mm 0 mps 742 mmHg 88%
    03:00 +12°C° 0 mm 0 mps 742 mmHg 88%
    04:00 +12°C° 0 mm 0 mps 742 mmHg 88%
    05:00 +12°C° 0 mm 0 mps 742 mmHg 88%
    06:00 +12°C° 0 mm 0 mps 743 mmHg 88%
    07:00 +12°C° 0 mm 0 mps 743 mmHg 88%
    08:00 +13°C° 0 mm 0 mps 743 mmHg 81%
    09:00 +16°C° 0 mm 1 mps 744 mmHg 74%
    10:00 +19°C° 0 mm 1 mps 744 mmHg 68%
    11:00 +20°C° 0 mm 1 mps 744 mmHg 64%
    12:00 +21°C° 0 mm 1 mps 744 mmHg 60%
    13:00 +22°C° 0 mm 1 mps 745 mmHg 56%
    14:00 +22°C° 0 mm 1 mps 745 mmHg 59%
    15:00 +22°C° 0 mm 1 mps 745 mmHg 61%
    16:00 +21°C° 0 mm 1 mps 745 mmHg 63%
    17:00 +20°C° 0 mm 1 mps 745 mmHg 68%
    18:00 +19°C° 0 mm 1 mps 746 mmHg 73%
    19:00 +16°C° 0 mm 2 mps 746 mmHg 78%
    20:00 +16°C° 0 mm 2 mps 746 mmHg 80%
    21:00 +16°C° 0 mm 1 mps 746 mmHg 81%
    22:00 +15°C° 0 mm 1 mps 747 mmHg 83%
    23:00 +15°C° 0 mm 1 mps 747 mmHg 84%

    Day after tomorrow, 22 October, Tuesday

    Time Temperature Precipitation Wind Pressure Humidity
    00:00 +14°C° 0 mm 1 mps 747 mmHg 85%
    01:00 +14°C° 0 mm 1 mps 747 mmHg 86%
    02:00 +14°C° 0 mm 2 mps 747 mmHg 87%
    03:00 +14°C° 0 mm 2 mps 747 mmHg 88%
    04:00 +13°C° 0 mm 2 mps 748 mmHg 89%
    05:00 +13°C° 0 mm 2 mps 748 mmHg 89%
    06:00 +13°C° 0 mm 2 mps 748 mmHg 89%
    07:00 +13°C° 0 mm 2 mps 748 mmHg 90%
    08:00 +15°C° 0 mm 2 mps 748 mmHg 82%
    09:00 +17°C° 0 mm 2 mps 749 mmHg 75%
    10:00 +18°C° 0 mm 2 mps 749 mmHg 67%
    11:00 +19°C° 0 mm 2 mps 749 mmHg 64%
    12:00 +21°C° 0 mm 1 mps 748 mmHg 61%
    13:00 +22°C° 0 mm 1 mps 748 mmHg 58%
    14:00 +22°C° 0 mm 1 mps 748 mmHg 60%
    15:00 +21°C° 0 mm 1 mps 748 mmHg 63%
    16:00 +20°C° 0 mm 1 mps 747 mmHg 65%
    17:00 +17°C° 0 mm 0 mps 747 mmHg 70%
    18:00 +16°C° 0 mm 0 mps 748 mmHg 75%
    19:00 +15°C° 0 mm 0 mps 748 mmHg 79%
    20:00 +15°C° 0 mm 0 mps 748 mmHg 81%
    21:00 +15°C° 0 mm 0 mps 748 mmHg 83%
    22:00 +14°C° 0 mm 0 mps 748 mmHg 84%
    23:00 +14°C° 0 mm 0 mps 748 mmHg 85%

    23 October, Wednesday

    Time Temperature Precipitation Wind Pressure Humidity
    00:00 +13°C° 0 mm 0 mps 747 mmHg 87%
    01:00 +13°C° 0 mm 0 mps 747 mmHg 88%
    02:00 +13°C° 0 mm 0 mps 747 mmHg 89%
    03:00 +13°C° 0 mm 0 mps 747 mmHg 90%
    04:00 +13°C° 0 mm 1 mps 747 mmHg 91%
    05:00 +13°C° 0 mm 1 mps 746 mmHg 92%
    06:00 +13°C° 0 mm 1 mps 746 mmHg 93%
    07:00 +13°C° 0 mm 1 mps 746 mmHg 94%
    08:00 +14°C° 0 mm 2 mps 746 mmHg 87%
    09:00 +16°C° 0 mm 2 mps 746 mmHg 81%
    10:00 +18°C° 0 mm 3 mps 746 mmHg 74%
    11:00 +19°C° 0 mm 3 mps 745 mmHg 68%
    12:00 +20°C° 0 mm 4 mps 745 mmHg 62%
    13:00 +22°C° 0 mm 5 mps 744 mmHg 55%
    14:00 +22°C° 0 mm 5 mps 744 mmHg 55%
    15:00 +21°C° 0 mm 5 mps 743 mmHg 56%
    16:00 +21°C° 0 mm 5 mps 743 mmHg 56%
    17:00 +20°C° 0 mm 5 mps 743 mmHg 60%
    18:00 +19°C° 0 mm 5 mps 743 mmHg 63%
    19:00 +18°C° 0 mm 4 mps 743 mmHg 67%
    20:00 +16°C° 0 mm 5 mps 742 mmHg 68%
    21:00 +16°C° 0 mm 5 mps 742 mmHg 70%
    22:00 +16°C° 0 mm 5 mps 742 mmHg 72%
    23:00 +15°C° 0 mm 5 mps 742 mmHg 73%

    24 October, Thursday

    Time Temperature Precipitation Wind Pressure Humidity
    00:00 +15°C° 0 mm 5 mps 741 mmHg 75%
    01:00 +15°C° 0 mm 5 mps 741 mmHg 76%
    02:00 +14°C° 0 mm 5 mps 741 mmHg 78%
    03:00 +14°C° 0 mm 4 mps 741 mmHg 79%
    04:00 +13°C° 0 mm 4 mps 740 mmHg 81%
    05:00 +13°C° 0 mm 4 mps 740 mmHg 82%
    06:00 +13°C° 0 mm 4 mps 740 mmHg 84%
    07:00 +12°C° 0 mm 4 mps 740 mmHg 85%
    08:00 +14°C° 0 mm 4 mps 740 mmHg 77%
    09:00 +17°C° 0 mm 4 mps 740 mmHg 69%
    10:00 +19°C° 0 mm 4 mps 740 mmHg 61%
    11:00 +20°C° 0 mm 4 mps 740 mmHg 56%
    12:00 +21°C° 0 mm 4 mps 740 mmHg 50%
    13:00 +23°C° 0 mm 4 mps 740 mmHg 45%
    14:00 +22°C° 0 mm 3 mps 740 mmHg 47%
    15:00 +22°C° 0 mm 3 mps 740 mmHg 48%
    16:00 +21°C° 0 mm 2 mps 740 mmHg 50%
    17:00 +20°C° 0 mm 2 mps 740 mmHg 54%
    18:00 +18°C° 0 mm 2 mps 740 mmHg 59%
    19:00 +17°C° 0 mm 2 mps 740 mmHg 63%
    20:00 +16°C° 0 mm 2 mps 740 mmHg 66%
    21:00 +15°C° 0 mm 1 mps 740 mmHg 69%
    22:00 +15°C° 0 mm 1 mps 741 mmHg 72%
    23:00 +14°C° 0 mm 1 mps 741 mmHg 74%

    25 October, Friday

    Time Temperature Precipitation Wind Pressure Humidity
    00:00 +14°C° 0 mm 1 mps 741 mmHg 76%
    01:00 +13°C° 0 mm 1 mps 741 mmHg 78%
    02:00 +13°C° 0 mm 1 mps 741 mmHg 80%
    03:00 +13°C° 0 mm 1 mps 741 mmHg 81%
    04:00 +12°C° 0 mm 1 mps 741 mmHg 82%
    05:00 +11°C° 0 mm 0 mps 741 mmHg 83%
    06:00 +11°C° 0 mm 0 mps 741 mmHg 83%
    07:00 +11°C° 0 mm 0 mps 741 mmHg 84%
    08:00 +12°C° 0 mm 0 mps 742 mmHg 76%
    09:00 +14°C° 0 mm 0 mps 742 mmHg 68%
    10:00 +16°C° 0 mm 0 mps 742 mmHg 61%
    11:00 +19°C° 0 mm 1 mps 742 mmHg 57%
    12:00 +20°C° 0 mm 1 mps 742 mmHg 54%
    13:00 +21°C° 0 mm 1 mps 742 mmHg 50%
    14:00 +19°C° 0 mm 0 mps 742 mmHg 52%
    15:00 +18°C° 0 mm 0 mps 742 mmHg 54%
    16:00 +18°C° 0 mm 0 mps 742 mmHg 56%
    17:00 +16°C° 0 mm 0 mps 742 mmHg 60%
    18:00 +15°C° 0 mm 0 mps 742 mmHg 64%
    19:00 +14°C° 0 mm 0 mps 742 mmHg 68%
    20:00 +14°C° 0 mm 0 mps 743 mmHg 70%
    21:00 +13°C° 0 mm 0 mps 743 mmHg 72%
    22:00 +13°C° 0 mm 0 mps 743 mmHg 74%
    23:00 +12°C° 0 mm 0 mps 743 mmHg 75%
    Show more